GW3042 Weather Reports


Display with metric or nautical units.
time (UTC)temp
F
wind
direction
speed
MPH
gust
MPH
rain 1hr
in
rain 24hr
in
rain mn
in
humidity
%
barometer
mb
20260506221507 52 38 0.0 1.0 0.02 1.09 0.01 94 1012.7
20260506214548 52 38 0.0 1.0 0.02 1.10 1.08 93 1012.5
20260506213037 52 38 0.0 1.0 0.02 1.10 1.08 93 1012.3
20260506211523 52 38 0.0 1.0 0.02 1.09 1.07 93 1012.4
20260506210012 52 38 0.0 0.0 0.02 1.09 1.06 92 1012.6
20260506204600 52 38 0.0 2.0 0.02 1.09 1.06 92 1012.0
20260506203046 52 38 0.0 0.0 0.02 1.08 1.06 92 1011.6
20260506201538 53 38 0.0 0.0 0.03 1.08 1.06 92 1011.5
20260506200022 53 38 0.0 1.0 0.03 1.07 1.05 92 1011.5
20260506194511 53 38 2.0 5.0 0.03 1.06 1.04 91 1011.3
20260506193104 53 203 2.0 4.0 0.02 1.06 1.03 91 1011.1
20260506191549 54 256 0.0 2.0 0.02 1.05 1.02 91 1010.9
20260506190039 54 256 0.0 2.0 0.01 1.04 1.02 90 1010.6
20260506184526 54 256 0.0 1.0 0.00 1.03 1.01 89 1010.1
20260506183014 55 256 0.0 0.0 0.00 1.03 1.01 89 1009.6
20260506181504 55 256 0.0 0.0 0.00 1.03 1.01 88 1009.7
20260506180055 55 256 0.0 0.0 0.00 1.04 1.01 87 1009.6
20260506174544 55 256 0.0 2.0 0.00 1.04 1.01 87 1009.5
20260506173045 55 256 0.0 2.0 0.00 1.04 1.01 86 1009.3
20260506171527 56 255 1.0 3.0 0.00 1.04 1.01 86 1009.3
20260506170011 56 243 1.0 5.0 0.01 1.04 1.01 86 1009.1
20260506164608 56 198 2.0 5.0 0.02 1.04 1.01 85 1009.1
20260506163103 57 249 1.0 6.0 0.02 1.04 1.01 84 1009.1
20260506161541 56 233 1.0 4.0 0.04 1.04 1.01 88 1008.9
20260506160028 56 225 1.0 3.0 0.05 1.03 1.00 90 1009.2
20260506154516 56 235 1.0 4.0 0.06 1.02 0.99 91 1009.4
20260506153007 55 171 1.0 4.0 0.06 1.01 0.98 91 1009.5
20260506151556 55 127 0.0 3.0 0.07 1.00 0.97 92 1009.6
20260506150046 54 225 0.0 2.0 0.08 0.98 0.95 93 1009.6
20260506144539 53 192 0.0 4.0 0.09 0.97 0.94 92 1009.8
20260506143026 53 141 0.0 1.0 0.10 0.95 0.92 93 1010.1
20260506141515 52 141 0.0 2.0 0.12 0.93 0.90 92 1010.1
20260506140004 52 113 1.0 11.0 0.13 0.91 0.87 92 1010.0
20260506134549 51 155 4.0 11.0 0.11 0.87 0.84 92 1010.4
20260506133038 51 54 0.0 3.0 0.09 0.84 0.81 90 1010.5
20260506131530 51 44 0.0 3.0 0.07 0.81 0.78 89 1010.6
20260506130009 52 44 0.0 7.0 0.04 0.78 0.75 88 1010.7
20260506124601 54 33 1.0 7.0 0.02 0.76 0.73 87 1010.0
20260506123047 56 79 0.0 4.0 0.01 0.75 0.72 86 1009.3
20260506121537 57 148 0.0 2.0 0.00 0.74 0.71 85 1008.3
20260506120021 58 148 0.0 3.0 0.00 0.74 0.71 81 1007.6
20260506114511 58 81 1.0 9.0 0.00 0.74 0.71 81 1007.7
20260506113102 58 121 4.0 12.0 0.00 0.74 0.71 82 1007.7
20260506111552 57 155 4.0 14.0 0.00 0.74 0.71 83 1007.8
20260506110050 56 139 6.0 15.0 0.00 0.74 0.71 83 1008.2
20260506104530 55 194 2.0 15.0 0.00 0.74 0.71 85 1008.5
20260506103020 55 104 6.0 12.0 0.01 0.74 0.71 85 1008.7
20260506101518 55 167 2.0 11.0 0.01 0.74 0.71 86 1008.5
20260506100119 55 132 2.0 12.0 0.01 0.76 0.71 88 1008.0
20260506094551 55 152 2.0 10.0 0.01 0.76 0.71 90 1008.0
20260506093044 55 118 0.0 8.0 0.00 0.76 0.70 92 1008.1
20260506091533 55 226 0.0 1.0 0.00 0.76 0.70 94 1007.9
20260506090016 55 226 0.0 1.0 0.01 0.94 0.70 94 1007.8
20260506084506 54 256 0.0 2.0 0.02 0.94 0.70 95 1008.0
20260506083055 53 331 0.0 2.0 0.02 0.94 0.70 95 1008.3
20260506081550 54 29 0.0 2.0 0.02 0.94 0.70 96 1008.2
20260506073009 53 29 0.0 1.0 0.02 1.06 0.69 96 1008.6
20260506071600 53 29 0.0 3.0 0.02 1.06 0.69 95 1008.6
20260506061515 53 29 0.0 1.0 0.05 1.06 0.67 95 1009.1
20260506044540 53 29 0.0 1.0 0.18 0.99 0.60 95 1009.4
20260506043005 53 29 0.0 1.0 0.20 0.95 0.56 95 1009.6
20260506041603 53 29 0.0 0.0 0.22 0.92 0.53 95 1009.9
20260506040046 53 29 0.0 1.0 0.24 0.87 0.47 95 1009.7
20260506034601 53 29 0.0 0.0 0.25 0.81 0.42 95 1010.0
20260506033025 53 29 0.0 1.0 0.23 0.76 0.36 94 1010.2
20260506031516 53 29 0.0 2.0 0.19 0.69 0.30 94 1010.3
20260506030005 53 29 0.0 1.0 0.14 0.62 0.23 94 1010.5
20260506024557 53 29 0.0 0.0 0.12 0.56 0.17 94 1010.7
20260506023106 53 29 0.0 2.0 0.13 0.53 0.13 94 1010.8
20260506021536 53 29 0.0 1.0 0.10 0.50 0.11 94 1010.9
20260506020026 53 29 0.0 0.0 0.08 0.48 0.09 94 1010.9
20260506014525 53 29 0.0 0.0 0.05 0.44 0.05 94 1010.9
20260506013005 53 29 0.0 0.0 0.01 0.40 0.01 94 1011.0
20260506011617 53 29 0.0 0.0 0.01 0.40 0.01 94 1011.2
20260506010054 53 29 0.0 1.0 0.01 0.40 0.01 94 1011.4
20260506004557 53 29 0.0 3.0 0.00 0.39 0.00 94 1011.4
20260506003038 53 29 0.0 2.0 0.00 0.39 0.00 94 1011.5
20260506001515 53 29 0.0 2.0 0.00 0.39 0.00 94 1011.7
20260506000004 53 29 0.0 2.0 0.00 0.39 0.00 94 1012.0
20260505234630 53 29 0.0 0.0 0.00 0.39 0.00 94 1012.0
20260505233048 53 29 0.0 2.0 0.00 0.39 0.00 94 1012.3
20260505231536 53 29 0.0 0.0 0.00 0.39 0.00 94 1012.4
20260505230018 53 29 0.0 2.0 0.00 0.39 0.00 94 1012.3
20260505224509 53 29 1.0 2.0 0.00 0.39 0.00 93 1012.4
20260505223101 53 29 0.0 1.0 0.00 0.39 0.00 93 1012.4